Lexington Weather

Lexington, Massachusetts, USA

70°F
8/17/2022 5:37pm 
  • Lexington Conditions: Overcast
  • Temperature: 70.0°F / 21.1°CColder 0.5°F than last hour.
  • Dew Point: 58.5°FIncreased 1.7°Fsince last hour.
  • Relative Humidity: 67%Increased 5.0% since last hour.
  • Wind: Calm, 10-min avg: Calm, gust: 1 mph
  • Barometer: 29.86 inFalling 0.02  inHg/hr Falling Slowly
  • Visibility: 10 miles
  • Rain Today: 0.00 in
  •   

Regional Weather Roundup
for Boston, MA

        
000
ASUS41 KBOX 142010
RWRBOX

REGIONAL WEATHER ROUNDUP
NATIONAL WEATHER SERVICE BOSTON/NORTON MA
400 PM EDT SUN AUG 14 2022

NOTE:  "FAIR" INDICATES FEW OR NO CLOUDS BELOW 12,000 FEET WITH NO 
SIGNIFICANT WEATHER AND/OR OBSTRUCTIONS TO VISIBILITY.

MAZALL-142100-
EASTERN MASSACHUSETTS
  
CITY           SKY/WX    TMP DP  RH WIND       PRES   REMARKS
BOSTON         PTSUNNY   75  55  49 SE16      30.01S                  
BEVERLY        SUNNY     77  51  40 SE13      30.00F                  
LAWRENCE       PTSUNNY   81  47  30 N5        30.01F                  
BEDFORD        MOSUNNY   84  47  27 CALM      29.99F                  
BLUE HILL      NOT AVBL                                               
NORWOOD        MOSUNNY   83  47  28 VRB3      29.99F                  
MARSHFIELD     SUNNY     72  59  64 SE6       30.02S                  
PLYMOUTH       SUNNY     77  57  50 SE6       30.02S                  
TAUNTON          N/A    N/A N/A N/A MISG      30.00S                  
NEW BEDFORD    SUNNY     77  57  50 S13       30.02S                  
$$

MAZALL-142100-
CAPE COD AND THE ISLANDS
  
CITY           SKY/WX    TMP DP  RH WIND       PRES   REMARKS
FALMOUTH       SUNNY     75  57  53 NE10      30.05S                  
HYANNIS        SUNNY     76  60  57 S8        30.02S                  
CHATHAM        SUNNY     76  62  62 S7        30.04S                  
NANTUCKET      SUNNY     74  63  68 SW7       30.04S                  
MARTHAS VNYRD  SUNNY     75  58  55 S9        30.04R                  
$$
 
MAZALL-142100-
CENTRAL AND WESTERN MASSACHUSETTS
  
CITY           SKY/WX    TMP DP  RH WIND       PRES   REMARKS
WORCESTER      SUNNY     78  45  30 NW5       30.04F                  
FITCHBURG      SUNNY     82  39  21 MISG      30.02S                  
ORANGE         SUNNY     82  46  28 NW7       30.03S                  
SPRINGFIELD    MOSUNNY   83  46  27 S6        29.98F                  
WESTFIELD      MOSUNNY   82  48  30 S6        30.00F                  
NORTH ADAMS    SUNNY     78  52  40 VRB3      30.02F                  
PITTSFIELD     SUNNY     79  44  28 W7        30.03F                  
$$
 
RIZALL-142100-
RHODE ISLAND
  
CITY           SKY/WX    TMP DP  RH WIND       PRES   REMARKS
PROVIDENCE     PTSUNNY   80  54  40 S14       30.02S                  
NEWPORT        SUNNY     74  55  51 VRB6G16   30.03S                  
BLOCK ISLAND   SUNNY     76  55  48 SW10      30.05S                  
SMITHFIELD     MOSUNNY   81  48  31 W7        30.03S                  
WESTERLY       SUNNY     77  54  44 SW9       30.03S                  
$$
 
CTZALL-142100-
CONNECTICUT
  
CITY           SKY/WX    TMP DP  RH WIND       PRES   REMARKS
BRADLEY INTL   MOSUNNY   83  50  31 VRB5      30.00F                  
HARTFORD       CLOUDY    81  53  37 SE8       30.00F                  
BRIDGEPORT     SUNNY     80  55  42 S9        30.02F                  
DANBURY        MOSUNNY   83  52  34 VRB6      30.02F                  
GROTON         SUNNY     78  52  40 SW10      30.03S                  
NEW HAVEN      SUNNY     80  56  43 S8        30.03F                  
CHESTER        FAIR      82  46  28 S8        30.03F                  
MERIDEN        SUNNY     81  49  32 S13       30.01F                  
WILLIMANTIC    MOSUNNY   80  47  31 SW8       30.01F                  
OXFORD         SUNNY     79  52  38 W7        30.04F                  
$$

MEZ002-015-021-024-NHZ003-005-008-011-012-014-VTZ005-008-142100-
NORTHERN NEW ENGLAND
  
CITY           SKY/WX    TMP DP  RH WIND       PRES   REMARKS
PORTLAND ME    MOSUNNY   76  53  44 S12       30.00S                  
BANGOR ME      MOSUNNY   83  49  30 N9        29.96F                  
CONCORD NH     PTSUNNY   82  47  29 W6        30.01S                  
MANCHESTER NH  PTSUNNY   84  48  28 NW5       29.99F                  
NASHUA NH      PTSUNNY   81  48  31 VRB5      30.00F                  
PORTSMOUTH NH  PTSUNNY   77  49  36 SE14      30.00R                  
JAFFREY NH     SUNNY     80  43  26 W9        30.05S                  
KEENE NH       MOSUNNY   80  47  31 VRB5        N/A                   
BURLINGTON VT  MOSUNNY   79  44  28 CALM      30.03S                  
MT. WASHINGTON PTSUNNY   52  43  71 W12G17      N/A                   
$$

NYZ052-076-142100-
EASTERN NEW YORK
  
CITY           SKY/WX    TMP DP  RH WIND       PRES   REMARKS
ALBANY         MOSUNNY   81  50  33 NE7       30.01F                  
NEW YORK CITY  PTSUNNY   82  47  29 S16       30.01F                  
$$
 
ANZALL-142100-
MARINE OBSERVATIONS
  
STATION/POSITION TIME  TEMP    WIND        PRES    VSBY  WAVE
                       AIR SEA DIR/SP/G                  HT/PER
                 (UTC) (F)     (DEG/KT/KT) (MB)    (MI)  (FT/S)
BOSTON BUOY      NOT AVBL
BUZZARDS BAY     NOT AVBL
NANTUCKET SOUND  NOT AVBL
MASS BAY-STELLWA NOT AVBL
ISLE OF SHOALS   NOT AVBL
S OF BLOCK IS    NOT AVBL
$$

......................KEY.........................
  SKY/WX - SKY CONDITION/PRESENT WEATHER
  TMP    - TEMPERATURE IN FAHRENHEIT
  DWPT   - DEWPOINT IN FAHRENHEIT
  RH     - RELATIVE HUMIDITY IN PERCENT
  WIND   - DIRECTION AND SPEED IN MPH
  PRES   - MEAN SEA LEVEL PRESSURE IN INCHES OF HG
  WCI    - WIND CHILL INDEX
  VSB    - VISIBILITY IN MILES
  HX     - HEAT INDEX
  TC     - TEMPERATURE IN CELSIUS
  VRB    - VARIABLE WIND DIRECTION
  N/A    - NOT AVAILABLE
  
      

Other recent Regional Weather Roundups

Wed Aug 17, 5:10pm

Wed Aug 17, 4:10pm

Wed Aug 17, 3:10pm

Wed Aug 17, 2:10pm

Wed Aug 17, 1:10pm

Wed Aug 17, 12:10pm

Wed Aug 17, 11:10am

Wed Aug 17, 10:10am

Wed Aug 17, 9:10am

Wed Aug 17, 8:10am

Wed Aug 17, 7:10am

Wed Aug 17, 6:10am

Wed Aug 17, 5:10am

Wed Aug 17, 4:10am

Wed Aug 17, 3:10am

Wed Aug 17, 2:10am

Wed Aug 17, 1:10am

Wed Aug 17, 12:10am

Tue Aug 16, 11:10pm

Tue Aug 16, 10:10pm

Tue Aug 16, 9:10pm

Tue Aug 16, 8:10pm

Tue Aug 16, 7:10pm

Tue Aug 16, 6:10pm

Tue Aug 16, 5:10pm

Tue Aug 16, 4:10pm

Tue Aug 16, 3:10pm

Tue Aug 16, 2:10pm

Tue Aug 16, 1:10pm

Tue Aug 16, 12:10pm

Tue Aug 16, 11:10am

Tue Aug 16, 10:10am

Tue Aug 16, 9:10am

Tue Aug 16, 8:10am

Tue Aug 16, 7:10am

Tue Aug 16, 6:10am

Tue Aug 16, 5:10am

Tue Aug 16, 4:10am

Tue Aug 16, 3:10am

Tue Aug 16, 2:10am

Tue Aug 16, 1:10am

Tue Aug 16, 12:10am

Mon Aug 15, 11:10pm

Mon Aug 15, 10:10pm

Mon Aug 15, 9:10pm

Mon Aug 15, 8:10pm

Mon Aug 15, 7:10pm

Mon Aug 15, 6:10pm

Mon Aug 15, 5:10pm

Mon Aug 15, 4:10pm

Mon Aug 15, 3:10pm

Mon Aug 15, 2:10pm

Mon Aug 15, 1:10pm

Mon Aug 15, 12:10pm

Mon Aug 15, 11:10am

Mon Aug 15, 10:10am

Mon Aug 15, 9:10am

Mon Aug 15, 8:10am

Mon Aug 15, 7:10am

Mon Aug 15, 6:10am

Mon Aug 15, 5:10am

Mon Aug 15, 4:10am

Mon Aug 15, 3:10am

Mon Aug 15, 2:10am

Mon Aug 15, 1:10am

Mon Aug 15, 12:10am

Sun Aug 14, 11:10pm

Sun Aug 14, 10:10pm

Sun Aug 14, 9:10pm

Sun Aug 14, 8:10pm

Sun Aug 14, 7:10pm

Sun Aug 14, 6:10pm

Sun Aug 14, 5:10pm

Sun Aug 14, 3:10pm

Sun Aug 14, 2:10pm

Sun Aug 14, 1:10pm

Sun Aug 14, 12:10pm

Sun Aug 14, 11:10am

Sun Aug 14, 10:10am

Sun Aug 14, 9:10am

Sun Aug 14, 8:10am

Sun Aug 14, 7:10am

Sun Aug 14, 6:10am

Sun Aug 14, 5:10am

Sun Aug 14, 4:10am

Sun Aug 14, 3:10am

Sun Aug 14, 2:10am

Sun Aug 14, 1:10am

Sun Aug 14, 12:10am

Sat Aug 13, 11:10pm

Sat Aug 13, 10:10pm

Sat Aug 13, 9:10pm

Sat Aug 13, 8:10pm

Sat Aug 13, 7:10pm

Sat Aug 13, 6:10pm

Sat Aug 13, 5:10pm

Sat Aug 13, 4:10pm

Sat Aug 13, 3:10pm

Sat Aug 13, 2:10pm

Sat Aug 13, 1:10pm

Sat Aug 13, 12:10pm

Sat Aug 13, 11:10am

Sat Aug 13, 10:10am

Sat Aug 13, 9:10am

Sat Aug 13, 8:10am

Sat Aug 13, 7:10am

Sat Aug 13, 6:10am

Sat Aug 13, 5:10am

Sat Aug 13, 4:10am

Sat Aug 13, 3:10am

Sat Aug 13, 2:10am

Sat Aug 13, 1:10am

Sat Aug 13, 12:10am

Fri Aug 12, 11:10pm

Fri Aug 12, 10:10pm

Fri Aug 12, 9:10pm

Fri Aug 12, 8:10pm

Fri Aug 12, 7:10pm

Fri Aug 12, 6:10pm

Fri Aug 12, 5:10pm

Fri Aug 12, 4:10pm

Fri Aug 12, 3:10pm

Fri Aug 12, 2:10pm

Fri Aug 12, 1:10pm

Fri Aug 12, 12:10pm

Fri Aug 12, 11:10am

Fri Aug 12, 10:10am

Fri Aug 12, 9:10am

Fri Aug 12, 8:10am

Fri Aug 12, 7:10am

Fri Aug 12, 6:10am

Fri Aug 12, 5:10am

Fri Aug 12, 4:10am

Fri Aug 12, 3:10am

Fri Aug 12, 2:10am

Fri Aug 12, 1:10am

Fri Aug 12, 12:10am

Thu Aug 11, 11:10pm

Thu Aug 11, 10:10pm

Thu Aug 11, 9:10pm

Thu Aug 11, 8:10pm

Thu Aug 11, 7:10pm

Thu Aug 11, 6:10pm

Thu Aug 11, 5:10pm

Thu Aug 11, 4:10pm

Thu Aug 11, 3:10pm

Thu Aug 11, 2:10pm

Thu Aug 11, 1:10pm

Thu Aug 11, 12:10pm

Thu Aug 11, 11:10am

Thu Aug 11, 10:10am

Thu Aug 11, 9:10am

Thu Aug 11, 8:10am

Thu Aug 11, 7:10am

Thu Aug 11, 6:10am

Thu Aug 11, 5:10am

Thu Aug 11, 4:10am

Thu Aug 11, 3:10am

Thu Aug 11, 2:10am

Thu Aug 11, 1:10am

Thu Aug 11, 12:10am

Wed Aug 10, 11:10pm

Wed Aug 10, 10:10pm

Wed Aug 10, 9:10pm

Wed Aug 10, 8:10pm

Wed Aug 10, 7:10pm

Wed Aug 10, 6:10pm

Meta data:

ID: 0654d3cc-2112-473d-af08-035659ad1d4a
Link: https://api.weather.gov/products/0654d3cc-2112-473d-af08-035659ad1d4a